Terminal Aerodrome Forecast
Issued by NWS Tulsa, OK

Home | Current Version | Previous Version | Text Only | Print | Product List | Glossary On
Versions: 1 2 3 4 5 6 7 8 9 10 11 12 13 14 15 16 17 18
000
FTUS44 KTSA 300310 AAA
TAFFSM
TAF AMD
KFSM 300310Z 3003/3024 09013G27KT 6SM RA VCTS FEW040 BKN080CB
      TEMPO 3003/3006 3SM -TSRA BKN008CB
     FM300600 07010KT P6SM BKN012
     FM301000 VRB03KT 4SM BR OVC008
     FM301600 25007KT P6SM BKN015
     FM301900 27007KT P6SM SCT025 BKN250=

USA.gov is the U.S. government's official web portal to all federal, state and local government web resources and services.